Location: Albacete
(38.9833°N, 1.8500°W)
Time: 21:05:32
(UTC+02:00)

ISS - Visible Passes

Search period start: 20 May 2025 00:00
Search period end: 30 May 2025 00:00
Orbit: 416 x 419 km, 51.6° (Epoch: 20 May)

Date Brightness Start Highest point End Pass type
(mag) Time Alt. Az. Time Alt. Az. Time Alt. Az.
20 May -1.0 23:05:40 10° NNW 23:07:36 14° NNE 23:09:31 10° NE visible
21 May -1.1 00:41:36 10° NW 00:42:43 19° NW 00:42:43 19° NW visible
21 May -0.9 22:17:58 10° N 22:19:17 12° NNE 22:20:35 10° NE visible
21 May -2.3 23:53:40 10° NW 23:56:19 34° N 23:56:19 34° N visible
22 May -1.9 23:05:48 10° NNW 23:08:38 25° NNE 23:09:57 19° ENE visible
23 May -0.8 00:42:20 10° WNW 00:42:51 14° WNW 00:42:51 14° WNW visible
23 May -1.5 22:17:59 10° NNW 22:20:22 18° NNE 22:22:47 10° ENE visible
23 May -2.6 23:54:08 10° NW 23:56:30 42° WNW 23:56:30 42° WNW visible
24 May -3.5 23:06:04 10° NW 23:09:22 58° NE 23:10:10 44° E visible
25 May -2.6 22:18:05 10° NW 22:21:13 35° NNE 22:23:51 13° E visible
25 May -1.6 23:55:05 10° WNW 23:56:46 20° WSW 23:56:46 20° WSW visible
26 May -3.1 23:06:38 10° WNW 23:09:50 44° SW 23:10:30 38° S visible
27 May -3.8 22:18:24 10° NW 22:21:45 83° SW 22:24:16 16° SE visible
28 May -1.4 23:08:04 10° W 23:10:01 15° SW 23:11:00 13° SSW visible
29 May -2.1 22:19:10 10° WNW 22:22:00 25° SW 22:24:49 10° S visible
